SCP
0 0 0 0 0 0 0 0 0 0 0 0 0 0 0 0 0 0 0 0 0 0 0 0 0 0 0 0 0 0 0 0 0 0 0 0 0 0 0 0 0 0 0 0 0 0 0 0 0
0 0 0 0 0 0 0 0 0 0 0 0 0 0 0 0 0 0 0 0 0 0 0 0 0 0 0 0 0 0 0 0 0 0 0 0 0 0 0 0 0 0 0 0 0 0 0 0 0
0 0 0 0 0 0 0 0 0 0 0 0 0 0 0 0 0 0 0 0 0 0 0 0 0 0 0 0 0 0 0 0 0 0 0 0 0 0 0 0 0 0 0 0 0 0 0 0 0
0 0 0 0 0 0 0 0 0 0 0 0 0 0 0 0 0 0 0 0 0 0 0 0 0 0 0 0 0 0 0 0 0 0 0 0 0 0 0 0 0 0 0 0 0 0 0 0 0
0 0 0 0 0 0 0 0 0 0 0 0 0 0 0 0 0 0 0 0 0 0 0 0 0 0 0 0 0 0 0 0 0 0 0 0 0 0 0 0 0 0 0 0 0 0 0 0 0
0 0 0 0 0 0 0 0 0 0 0 0 0 0 0 0 0 0 0 0 0 0 0 0 0 0 0 0 0 0 0 0 0 0 0 0 0 0 0 0 0 0 0 0 0 0 0 0 0
0 0 0 0 0 0 0 0 0 0 0 0 0 0 0 0 0 0 0 0 0 0 0 0 0 0 0 0 0 0 0 0 0 0 0 0 0 0 0 0 0 0 0 0 0 0 0 0 0
0 0 0 0 0 0 0 0 0 0 0 0 0 0 0 0 0 0 0 0 0 0 0 0 0 0 0 0 0 0 0 0 0 0 0 0 0 0 0 0 0 0 0 0 0 0 0 0 0
0 0 0 0 0 0 0 0 0 0 0 0 0 0 0 0 0 0 0 0 0 0 0 0 0 0 0 0 0 0 0 0 0 0 0 0 0 0 0 0 0 0 0 0 0 0 0 0 0
0 0 0 0 0 0 0 0 0 0 0 0 0 0 0 0 0 0 0 0 0 0 0 0 0 0 0 0 0 0 0 0 0 0 0 0 0 0 0 0 0 0 0 0 0 0 0 0 0
0 0 0 0 0 0 0 0 0 0 0 0 0 0 0 0 0 0 0 0 0 0 0 0 0 0 0 0 0 0 0 0 0 0 0 0 0 0 0 0 0 0 0 0 0 0 0 0 0
0 0 0 0 0 0 0 0 0 0 0 0 0 0 0 0 0 0 0 0 0 0 0 0 0 0 0 0 0 0 0 0 0 0 0 0 0 0 0 0 0 0 0 0 0 0 0 0 0
0 0 0 0 0 0 0 0 0 0 0 0 0 0 0 0 0 0 0 0 0 0 0 0 0 0 0 0 0 0 0 0 0 0 0 0 0 0 0 0 0 0 0 0 0 0 0 0 0
0 0 0 0 0 0 0 0 0 0 0 0 0 0 0 0 0 0 0 0 0 0 0 0 0 0 0 0 0 0 0 0 0 0 0 0 0 0 0 0 0 0 0 0 0 0 0 0 0
0 0 0 0 0 0 0 0 0 0 0 0 0 0 0 0 0 0 0 0 0 0 0 0 0 0 0 0 0 0 0 0 0 0 0 0 0 0 0 0 0 0 0 0 0 0 0 0 0
0 0 0 0 0 0 0 0 0 0 0 0 0 0 0 0 0 0 0 0 0 0 0 0 0 0 0 0 0 0 0 0 0 0 0 0 0 0 0 0 0 0 0 0 0 0 0 0 0
0 0 0 0 0 0 0 0 0 0 0 0 0 0 0 0 0 0 0 0 0 0 0 0 0 0 0 0 0 0 0 0 0 0 0 0 0 0 0 0 0 0 0 0 0 0 0 0 0
0 0 0 0 0 0 0 0 0 0 0 0 0 0 0 0 0 0 0 0 0 0 0 0 0 0 0 0 0 0 0 0 0 0 0 0 0 0 0 0 0 0 0 0 0 0 0 0 0
0 0 0 0 0 0 0 0 0 0 0 0 0 0 0 0 0 0 0 0 0 0 0 0 0 0 0 0 0 0 0 0 0 0 0 0 0 0 0 0 0 0 0 0 0 0 0 0 0
0 0 0 0 0 0 0 0 0 0 0 0 0 0 0 0 0 0 0 0 0 0 0 0 0 0 0 0 0 0 0 0 0 0 0 0 0 0 0 0 0 0 0 0 0 0 0 0 0
0 0 0 0 0 0 0 0 0 0 0 0 0 0 0 0 0 0 0 0 0 0 0 0 0 0 0 0 0 0 0 0 0 0 0 0 0 0 0 0 0 0 0 0 0 0 0 0 0
0 0 0 0 0 0 0 0 0 0 0 0 0 0 0 0 0 0 0 0 0 0 0 0 0 0 0 0 0 0 0 0 0 0 0 0 0 0 0 0 0 0 0 0 0 0 0 0 0
0 0 0 0 0 0 0 0 0 0 0 0 0 0 0 0 0 0 0 0 0 0 0 0 0 0 0 0 0 0 0 0 0 0 0 0 0 0 0 0 0 0 0 0 0 0 0 0 0
0 0 0 0 0 0 0 0 0 0 0 0 0 0 0 0 0 0 0 0 0 0 0 0 0 0 0 0 0 0 0 0 0 0 0 0 0 0 0 0 0 0 0 0 0 0 0 0 0
0 0 0 0 0 0 0 0 0 0 0 0 0 0 0 0 0 0 0 0 0 0 0 0 0 0 0 0 0 0 0 0 0 0 0 0 0 0 0 0 0 0 0 0 0 0 0 0 0
0 0 0 0 0 0 0 0 0 0 0 0 0 0 0 0 0 0 0 0 0 0 0 0 0 0 0 0 0 0 0 0 0 0 0 0 0 0 0 0 0 0 0 0 0 0 0 0 0
0 0 0 0 0 0 0 0 0 0 0 0 0 0 0 0 0 0 0 0 0 0 0 0 0 0 0 0 0 0 0 0 0 0 0 0 0 0 0 0 0 0 0 0 0 0 0 0 0
0 0 0 0 0 0 0 0 0 0 0 0 0 0 0 0 0 0 0 0 0 0 0 0 0 0 0 0 0 0 0 0 0 0 0 0 0 0 0 0 0 0 0 0 0 0 0 0 0
0 0 0 0 0 0 0 0 0 0 0 0 0 0 0 0 0 0 0 0 0 0 0 0 0 0 0 0 0 0 0 0 0 0 0 0 0 0 0 0 0 0 0 0 0 0 0 0 0
0 0 0 0 0 0 0 0 0 0 0 0 0 0 0 0 0 0 0 0 0 0 0 0 0 0 0 0 0 0 0 0 0 0 0 0 0 0 0 0 0 0 0 0 0 0 0 0 0
Wind_Speed
12 9 5 5 6 2 9 8 7 7 7 8 7 7 8 9 8 7 5 5 4 4 5 5 5 5 5 5 5 5 5 5 4 4 4 4 4 4 5 6 6 6 8 9 10 11 11 12 12
8 6 6 6 2 6 9 8 9 9 7 5 6 6 8 9 8 6 4 4 4 5 5 6 7 6 6 6 6 6 6 5 4 4 4 4 4 4 4 5 6 7 9 10 10 11 11 11 12
7 6 6 3 5 8 9 8 8 7 6 4 5 6 7 7 6 5 5 4 4 6 5 8 7 6 6 6 7 6 6 5 5 5 4 4 5 5 6 5 6 7 8 9 10 10 10 10 11
5 6 6 1 10 11 8 7 5 5 6 5 5 7 7 7 5 6 6 4 5 5 5 9 7 6 6 6 6 6 5 6 6 6 5 5 5 5 5 6 7 7 8 8 9 10 10 10 10
6 5 2 7 10 9 8 6 4 5 6 6 6 8 8 7 7 7 5 4 5 6 6 8 7 6 6 6 6 7 7 7 7 7 7 6 5 5 5 6 7 7 8 9 10 10 9 9 9
5 4 3 8 10 8 7 5 4 6 7 6 6 8 8 6 6 5 5 5 6 6 6 7 7 5 5 5 6 7 8 8 8 8 7 6 6 6 7 7 7 7 8 9 10 11 9 9 8
5 3 6 8 9 8 7 5 5 6 6 6 4 6 7 6 5 5 5 5 6 6 5 5 5 5 4 5 6 7 7 8 7 7 7 7 7 8 8 8 7 8 9 10 10 10 9 9 9
5 3 5 7 8 9 6 5 5 5 7 5 3 5 7 7 5 5 6 6 6 5 5 5 5 5 4 6 7 6 7 7 6 7 7 6 7 8 8 9 10 10 10 11 11 10 9 8 8
7 2 7 8 7 7 5 5 6 5 6 6 6 8 10 9 6 6 6 6 6 5 5 5 5 5 5 5 6 5 6 6 4 6 6 4 4 6 7 11 12 11 11 11 10 9 8 7 9
5 4 8 6 6 5 5 5 4 4 5 6 8 9 10 8 6 5 5 5 6 6 6 6 6 6 5 4 4 3 4 5 4 5 5 4 4 4 6 10 11 10 10 10 10 8 7 4 5
2 5 5 5 4 4 5 6 3 2 5 4 7 10 9 7 6 5 5 5 6 5 6 6 6 5 4 3 3 3 3 4 4 5 5 4 3 3 4 4 5 6 7 6 7 5 3 3 4
1 3 3 4 4 3 4 5 5 6 7 7 8 10 9 7 5 5 5 5 5 5 5 6 6 5 5 4 3 3 3 3 4 5 4 4 3 3 4 3 4 4 4 4 4 3 4 4 4
2 3 4 4 4 4 5 5 5 7 7 8 10 9 8 6 5 5 5 4 4 4 4 6 5 5 4 4 3 4 4 4 5 4 5 5 4 4 5 4 3 4 4 4 3 4 4 4 4
2 2 3 4 5 5 5 6 5 6 7 9 9 8 7 5 5 5 4 3 3 3 4 4 4 4 3 3 3 3 3 3 4 5 6 5 4 4 4 4 4 3 4 4 3 4 4 3 3
2 3 5 4 3 3 3 5 4 6 7 8 8 7 6 5 4 4 3 3 3 3 3 3 3 4 3 3 3 3 3 4 4 4 5 4 4 4 3 3 3 3 4 4 3 4 3 3 3
6 5 4 5 2 3 5 3 5 6 6 6 7 7 6 4 4 3 3 2 2 3 3 2 2 4 4 3 3 3 3 4 3 3 4 5 5 4 2 3 3 3 3 3 3 3 3 3 2
6 3 1 5 2 2 3 2 5 5 6 6 6 7 7 6 5 4 3 3 3 3 3 3 2 3 3 3 3 3 3 3 3 3 4 4 3 3 2 3 3 2 2 2 2 3 2 2 2
2 2 1 1 2 3 3 1 4 5 5 5 5 6 6 6 5 5 3 3 3 3 3 3 3 3 2 2 2 2 3 2 2 3 4 4 3 3 2 2 2 2 2 3 3 2 1 1 1
4 4 3 1 1 3 2 2 3 5 6 5 5 6 6 6 6 5 4 4 4 4 4 3 2 3 2 1 1 2 2 2 2 3 4 3 3 3 1 2 2 1 2 2 2 2 2 1 1
6 6 3 2 2 3 2 2 2 5 6 5 5 6 6 6 6 5 5 5 5 4 3 3 3 3 2 2 1 1 1 1 2 2 3 2 2 2 2 2 1 2 2 2 1 1 0 1 1
7 6 4 2 3 5 5 5 5 6 6 5 5 5 6 6 6 7 6 5 5 5 4 3 2 3 3 2 2 2 2 1 2 2 2 2 2 2 2 1 1 1 0 2 1 1 1 0 1
6 3 4 4 6 4 5 4 4 6 6 6 6 5 5 6 6 7 7 6 5 5 4 3 3 3 3 3 2 2 1 1 1 1 2 2 2 1 1 1 1 0 1 1 1 1 1 2 1
3 1 4 6 7 6 5 6 3 6 5 6 6 5 5 5 6 6 6 6 6 5 4 4 3 3 3 2 2 2 1 1 1 1 2 1 2 1 1 1 1 0 0 1 2 1 2 2 2
4 5 5 7 8 7 4 6 1 3 3 4 6 6 6 5 6 6 6 6 6 6 5 5 4 4 3 3 3 2 1 0 0 0 1 1 1 1 2 1 1 0 1 0 1 1 1 2 2
8 8 6 7 6 3 2 5 1 3 1 3 5 6 6 6 6 6 6 6 6 6 5 5 5 4 4 4 3 2 2 2 2 1 1 1 0 1 1 1 1 1 0 0 0 0 1 1 1
9 10 7 5 4 2 5 4 2 3 2 3 5 6 6 6 6 6 6 6 5 5 4 4 5 4 4 4 3 3 3 2 1 1 1 1 0 1 1 1 0 0 0 1 0 1 1 1 1
8 9 7 8 7 6 2 2 4 4 5 5 6 6 6 6 6 7 6 6 5 5 4 4 4 4 4 4 3 3 2 1 1 1 1 0 0 0 1 0 0 0 0 1 1 1 1 1 2
7 6 5 7 6 7 4 5 2 5 5 6 6 6 6 6 6 7 6 5 5 4 4 4 4 4 3 4 3 3 2 2 2 1 0 0 1 1 0 0 0 0 0 1 1 1 1 1 1
8 8 7 6 7 8 5 1 3 2 4 5 6 6 6 6 6 6 6 5 4 4 4 4 4 4 3 3 3 2 2 2 2 1 1 1 0 1 1 1 1 0 0 1 1 1 2 2 1
9 8 9 8 6 7 8 0 5 2 3 4 5 6 6 6 6 6 6 5 4 4 4 4 4 3 3 2 2 2 2 2 1 1 1 1 1 1 1 1 1 1 0 1 1 2 1 2 2
Wind_Direction
179 180 201 231 234 115 62 54 50 57 57 56 49 41 46 36 27 56 58 52 47 56 69 87 65 52 47 41 42 64 87 107 107 107 113 114 117 119 123 130 137 143 148 150 151 154 158 157 154
171 180 223 240 284 73 67 53 54 52 69 79 67 55 60 59 51 73 75 59 49 56 61 68 67 54 50 45 50 70 86 97 100 104 106 107 104 112 121 125 128 137 147 150 149 151 153 153 153
178 220 258 259 42 49 60 59 64 71 74 56 63 51 48 53 56 63 67 76 66 62 62 71 61 54 52 50 50 68 81 89 92 94 96 96 92 97 118 114 120 130 139 143 146 148 147 148 150
213 226 235 13 63 54 57 64 69 81 79 60 70 76 69 46 41 68 84 78 74 76 72 77 61 53 52 51 49 63 79 87 89 92 89 88 90 96 103 112 117 121 129 133 139 138 140 137 137
241 257 196 79 68 62 62 57 59 66 69 70 69 80 76 61 70 84 92 85 75 77 75 83 70 55 48 45 49 59 73 79 84 89 87 84 85 94 97 106 113 116 120 122 124 131 130 130 137
256 257 62 70 72 71 67 56 63 72 81 81 78 84 78 82 87 85 82 78 74 74 75 86 96 68 56 53 53 61 72 77 80 84 84 80 74 74 97 115 120 121 120 119 117 115 117 121 130
297 341 58 68 76 74 56 50 54 71 78 70 68 83 95 95 88 89 83 77 74 74 73 73 93 101 99 78 65 66 74 78 80 81 79 77 73 72 92 111 114 115 119 118 117 117 120 123 125
295 289 76 68 68 70 65 66 61 57 72 75 54 77 98 104 109 103 98 88 76 72 71 66 66 76 83 95 90 75 79 79 78 77 75 83 91 90 94 100 100 106 113 117 115 117 120 124 130
267 285 63 54 54 74 79 78 74 73 89 79 62 70 98 114 116 110 100 90 78 71 73 70 67 70 69 71 89 100 103 91 91 91 82 81 76 84 94 84 91 98 105 110 114 117 120 124 132
278 40 56 45 42 72 83 71 83 111 99 94 95 97 112 123 119 103 92 86 80 71 70 67 64 61 63 70 78 73 78 77 66 58 63 65 69 66 80 94 99 102 108 114 116 121 133 149 125
330 30 51 63 61 70 91 84 79 81 77 87 116 123 128 127 122 103 86 77 74 74 71 70 71 66 56 66 69 64 65 69 71 66 69 70 68 79 76 84 104 104 110 108 118 130 116 102 96
15 47 45 67 77 83 82 88 71 55 61 87 118 128 132 135 120 100 87 79 76 68 68 67 67 63 48 43 64 73 72 70 70 70 54 70 66 60 66 66 73 81 85 83 82 84 84 87 98
120 86 83 93 103 93 97 88 78 78 85 103 120 130 132 132 122 105 92 85 83 81 75 71 66 63 58 54 42 63 63 65 76 69 63 57 67 66 68 69 69 75 83 93 88 84 82 80 85
70 109 109 110 117 119 109 99 99 95 112 119 128 134 136 131 124 111 108 101 92 83 77 78 79 82 74 73 64 59 69 72 61 65 62 56 62 67 71 85 80 80 81 75 84 92 92 79 74
172 159 137 117 126 129 159 118 96 116 131 134 139 140 142 145 139 122 112 107 105 103 87 83 96 89 77 70 68 71 66 71 65 66 67 60 70 73 74 82 90 81 93 104 100 95 92 95 87
208 211 161 123 152 156 240 105 112 141 153 147 150 149 156 160 157 141 130 119 110 102 100 88 91 98 95 76 51 55 54 63 65 62 70 66 67 73 73 81 85 90 101 104 109 104 90 83 82
210 226 129 131 164 188 241 97 124 158 168 161 166 164 167 166 169 157 150 142 125 117 116 113 94 92 92 93 88 75 67 59 58 63 67 70 71 80 79 75 80 108 103 106 105 93 96 102 102
269 278 261 142 138 210 219 153 142 172 185 175 173 172 172 172 171 165 164 154 143 135 130 122 120 106 115 116 109 88 78 81 67 66 67 65 73 71 63 100 94 95 98 94 85 93 82 110 128
288 275 286 357 117 235 228 211 175 178 191 186 179 177 178 176 166 168 168 166 157 148 146 142 128 121 129 120 118 99 91 86 85 76 69 70 69 77 51 76 99 90 91 101 128 136 154 151 136
247 250 244 194 179 246 244 244 184 182 196 198 192 183 183 178 167 170 175 170 166 160 162 158 152 141 150 127 117 99 63 77 81 77 82 70 73 81 104 82 112 85 113 117 115 153 221 133 182
240 258 270 266 200 218 243 212 178 173 190 192 202 198 190 186 178 174 175 175 170 169 172 163 153 149 151 152 158 139 144 161 123 107 101 78 80 87 72 95 64 83 170 116 162 205 229 244 205
239 261 262 240 239 225 251 263 163 172 182 188 193 195 193 188 182 174 171 174 172 169 163 159 156 153 154 172 170 171 159 108 75 74 86 90 89 90 99 106 99 359 42 98 234 82 282 272 262
263 214 238 244 253 260 233 266 148 166 192 190 189 190 194 190 181 174 172 166 168 163 158 150 150 149 154 166 162 195 182 148 116 93 87 76 83 79 71 70 83 75 42 32 346 349 302 288 302
195 196 211 230 243 249 247 265 210 156 202 187 180 179 184 178 174 171 162 159 163 165 166 156 154 153 155 164 164 183 176 179 47 52 111 157 119 105 80 71 64 139 44 64 314 310 294 317 329
215 230 227 222 223 235 162 254 327 86 135 186 179 173 168 166 167 167 162 163 166 168 170 162 160 162 162 165 167 177 187 187 192 231 185 250 138 106 75 59 67 44 30 259 268 274 320 286 278
222 245 259 273 271 221 183 246 98 110 138 167 168 167 163 161 162 163 162 161 164 168 170 165 165 165 166 170 171 177 192 207 197 226 258 238 314 63 63 79 102 33 306 280 242 247 240 244 253
222 234 267 273 272 268 222 193 168 164 173 171 166 164 163 160 158 160 158 154 158 162 161 162 164 167 172 173 172 181 198 226 201 191 235 230 334 113 110 208 182 226 276 273 235 266 256 236 238
256 242 234 255 269 266 235 233 204 169 172 169 174 171 162 160 155 152 151 150 155 155 150 155 161 169 174 178 190 177 187 193 193 216 211 9 356 352 253 250 234 240 240 234 225 206 205 213 206
199 213 236 255 270 276 272 211 72 143 171 176 175 170 167 166 158 152 148 147 147 148 151 159 160 164 175 184 188 184 185 178 186 193 191 171 216 231 240 245 247 278 286 253 227 216 190 200 201
236 234 229 242 244 261 278 283 94 115 167 168 163 157 159 164 159 154 149 151 155 155 158 163 164 168 176 178 184 183 186 187 199 179 193 208 214 219 216 232 239 235 233 243 224 221 204 205 207